K4NSC-13 Weather Reports


time (UTC)temp
C
wind
direction
speed
KPH
gust
KPH
rain 1hr
cm
rain 24hr
cm
rain mn
cm
humidity
%
barometer
mb
20260906095523 21 123 0.0 1.6 0.00 0.94 0.00 100 1011.8
20260906094523 21 83 1.6 1.6 0.00 0.94 0.00 100 1011.7
20260906093524 21 88 1.6 3.2 0.00 0.94 0.00 100 1011.7
20260906092604 21 0.0 0.0 0.00 0.94 0.00 100 1011.6
20260906091524 21 75 0.0 1.6 0.00 0.94 0.00 100 1011.6
20260906090524 21 192 0.0 1.6 0.00 0.94 0.00 100 1011.5
20260906085524 21 95 1.6 3.2 0.00 0.94 0.00 100 1011.4
20260906084544 21 335 0.0 1.6 0.00 0.94 0.00 100 1011.4
20260906083538 21 91 1.6 3.2 0.00 0.94 0.00 100 1011.4
20260906082524 21 102 1.6 1.6 0.00 0.94 0.00 100 1011.4
20260906081545 21 0.0 0.0 0.00 0.94 0.00 100 1011.4
20260906080529 21 0.0 0.0 0.00 0.94 0.00 100 1011.2
20260906075525 21 278 0.0 1.6 0.00 0.94 0.00 100 1011.1
20260906074526 21 329 1.6 1.6 0.00 0.94 0.00 100 1011.2
20260906073526 21 340 0.0 3.2 0.00 0.94 0.00 100 1011.2
20260906072545 21 141 0.0 0.0 0.00 0.94 0.00 100 1011.1
20260906071526 21 0.0 0.0 0.00 0.94 0.00 100 1011.1
20260906070526 21 0.0 0.0 0.00 0.94 0.00 100 1011.2
20260906065526 21 170 0.0 1.6 0.00 0.94 0.00 100 1011.3
20260906064526 21 208 0.0 1.6 0.00 0.94 0.00 100 1011.4
20260906063534 21 6 0.0 1.6 0.00 0.94 0.00 100 1011.4
20260906062526 21 34 0.0 1.6 0.00 0.94 0.00 100 1011.4
20260906061527 21 0.0 0.0 0.00 0.94 0.00 100 1011.5
20260906060547 21 100 0.0 1.6 0.00 0.94 0.00 100 1011.6
20260906055529 21 8 0.0 0.0 0.00 0.94 0.00 100 1011.7
20260906054547 21 222 0.0 0.0 0.00 0.94 0.00 100 1011.8
20260906053527 21 0.0 0.0 0.00 0.94 0.00 100 1011.9
20260906052528 21 98 1.6 3.2 0.00 0.94 0.00 100 1012.0
20260906051528 21 110 1.6 3.2 0.00 0.94 0.00 100 1011.9
20260906050528 21 81 1.6 1.6 0.00 0.94 0.00 100 1012.0
20260906045528 21 154 1.6 3.2 0.00 0.94 0.00 100 1012.0
20260906044528 21 76 1.6 1.6 0.00 0.94 0.00 100 1012.0
20260906043528 21 98 1.6 3.2 0.00 0.94 0.00 100 1012.0
20260906042550 21 96 3.2 3.2 0.00 0.94 0.00 100 1012.2
20260906041529 22 102 3.2 3.2 0.00 0.94 0.00 100 1012.1
20260906040549 22 107 3.2 4.8 0.00 0.94 0.00 100 1012.0
20260906035529 22 106 1.6 4.8 0.00 0.94 0.94 100 1012.1
20260906034534 22 95 1.6 4.8 0.00 0.94 0.94 100 1012.1
20260906033529 22 117 3.2 3.2 0.00 0.94 0.94 100 1012.2
20260906032529 22 115 1.6 1.6 0.00 0.94 0.94 100 1012.4
20260906031550 22 123 3.2 4.8 0.00 0.94 0.94 100 1012.5
20260906030530 22 114 1.6 3.2 0.00 0.94 0.94 100 1012.5
20260906025530 22 71 1.6 3.2 0.00 0.94 0.94 100 1012.4
20260906024530 22 122 1.6 3.2 0.00 0.94 0.94 100 1012.5
20260906023531 21 110 1.6 1.6 0.00 0.94 0.94 100 1012.3
20260906022530 21 0.0 0.0 0.00 0.94 0.94 100 1012.2
20260906021531 22 325 3.2 3.2 0.00 0.94 0.94 100 1012.1
20260906020531 22 61 0.0 1.6 0.00 0.94 0.94 100 1012.0
20260906015533 22 142 0.0 1.6 0.00 0.94 0.94 100 1011.9
20260906014516 22 155 0.0 1.6 0.00 0.94 0.94 100 1011.8
20260906013531 22 0.0 0.0 0.00 0.94 0.94 100 1011.7
20260906012532 22 106 1.6 3.2 0.00 0.94 0.94 100 1011.6
20260906011532 22 154 1.6 1.6 0.00 0.94 0.94 100 1011.5
20260906010532 22 100 1.6 3.2 0.00 0.94 0.94 100 1011.6
20260906005532 22 118 1.6 3.2 0.00 0.94 0.94 100 1011.4
20260906004532 22 177 0.0 1.6 0.00 0.94 0.94 100 1011.4
20260906003517 22 348 3.2 8.0 0.00 0.94 0.94 100 1011.6
20260906002517 22 283 3.2 6.4 0.00 0.94 0.94 99 1011.6
20260906001518 22 355 3.2 8.0 0.00 0.94 0.94 99 1011.7
20260906000518 22 303 3.2 8.0 0.03 0.94 0.94 99 1011.6
20260905235518 22 163 1.6 4.8 0.03 0.94 0.94 97 1011.3
20260905234525 22 113 4.8 6.4 0.03 0.94 0.94 97 1011.4
20260905233518 22 106 3.2 6.4 0.03 0.94 0.94 98 1011.6
20260905232518 22 102 4.8 8.0 0.03 0.94 0.94 96 1011.5
20260905231538 23 341 3.2 6.4 0.08 0.94 0.94 95 1011.2
20260905230539 23 170 1.6 4.8 0.28 0.91 0.91 98 1011.2
20260905225519 23 240 1.6 3.2 0.69 0.91 0.91 96 1011.1
20260905224605 23 320 4.8 11.3 0.91 0.91 0.91 96 1010.8
20260905223519 23 102 4.8 6.4 0.91 0.91 0.91 96 1010.6
20260905222520 23 317 1.6 4.8 0.91 0.91 0.91 96 1010.9
20260905221519 24 322 4.8 9.7 0.86 0.86 0.86 96 1011.4
20260905220516 26 330 6.4 16.1 0.66 0.66 0.66 92 1012.4
20260905215519 31 37 8.0 20.9 0.23 0.23 0.23 75 1012.6
20260905214523 34 107 8.0 19.3 0.00 0.00 0.00 61 1011.2
20260905213520 35 123 1.6 3.2 0.00 0.00 0.00 58 1009.7
20260905212518 35 321 3.2 4.8 0.00 0.00 0.00 58 1009.0
20260905211520 36 171 1.6 4.8 0.00 0.00 0.00 57 1008.9
20260905210520 36 122 3.2 8.0 0.00 0.00 0.00 56 1008.9
20260905205600 36 127 1.6 3.2 0.00 0.00 0.00 56 1009.0
20260905204521 36 272 1.6 4.8 0.00 0.00 0.00 56 1009.0
20260905203521 36 165 1.6 3.2 0.00 0.00 0.00 57 1009.0
20260905202521 36 12 3.2 3.2 0.00 0.00 0.00 57 1009.2
20260905201521 36 347 3.2 6.4 0.00 0.00 0.00 57 1009.3
20260905200521 36 331 1.6 4.8 0.00 0.00 0.00 58 1009.3
20260905195521 36 166 3.2 8.0 0.00 0.00 0.00 59 1009.4
20260905194522 36 338 1.6 3.2 0.00 0.00 0.00 58 1009.4
20260905193521 35 99 1.6 4.8 0.00 0.00 0.00 59 1009.5
20260905192541 35 86 1.6 3.2 0.00 0.00 0.00 58 1009.7
20260905191522 36 132 1.6 3.2 0.00 0.00 0.00 57 1009.8
20260905190522 36 111 1.6 4.8 0.00 0.00 0.00 56 1009.9
20260905185522 36 165 1.6 3.2 0.00 0.00 0.00 55 1010.0
20260905184522 36 123 1.6 4.8 0.00 0.00 0.00 54 1010.2
20260905183522 36 125 4.8 9.7 0.00 0.00 0.00 54 1010.5
20260905182523 36 120 4.8 8.0 0.00 0.00 0.00 54 1010.6
20260905181522 35 123 4.8 6.4 0.00 0.00 0.00 56 1010.8
20260905180523 35 107 3.2 8.0 0.00 0.00 0.00 57 1011.1
20260905175523 35 115 4.8 8.0 0.00 0.00 0.00 58 1011.1
20260905174517 36 123 4.8 8.0 0.00 0.00 0.00 57 1011.3
20260905173523 35 153 3.2 6.4 0.00 0.00 0.00 58 1011.4
20260905172537 35 119 6.4 9.7 0.00 0.00 0.00 60 1011.6
20260905171604 35 143 3.2 4.8 0.00 0.00 0.00 59 1011.7
20260905170523 34 135 1.6 4.8 0.00 0.00 0.00 60 1012.0
20260905165538 33 110 4.8 8.0 0.00 0.00 0.00 62 1012.2
20260905164547 33 113 4.8 6.4 0.00 0.00 0.00 64 1012.3
20260905163525 34 115 4.8 6.4 0.00 0.00 0.00 61 1012.4
20260905162519 33 123 3.2 8.0 0.00 0.00 0.00 62 1012.6
20260905161544 33 91 4.8 8.0 0.00 0.00 0.00 63 1012.8
20260905160527 33 116 4.8 8.0 0.00 0.00 0.00 65 1012.9
20260905155518 33 132 3.2 9.7 0.00 0.00 0.00 67 1013.0
20260905154524 32 106 4.8 6.4 0.00 0.00 0.00 69 1013.1
20260905153524 32 111 4.8 6.4 0.00 0.00 0.00 71 1013.4
20260905152524 32 122 3.2 6.4 0.00 0.00 0.00 71 1013.4
20260905151524 31 112 4.8 8.0 0.00 0.00 0.00 73 1013.6
20260905150525 31 125 3.2 4.8 0.00 0.00 0.00 75 1013.7
20260905145525 30 119 3.2 6.4 0.00 0.00 0.00 77 1013.7
20260905144525 30 112 4.8 8.0 0.00 0.00 0.00 77 1013.8
20260905143525 30 124 3.2 4.8 0.00 0.00 0.00 78 1014.0
20260905142520 30 105 3.2 8.0 0.00 0.00 0.00 80 1014.0
20260905141544 29 107 4.8 6.4 0.00 0.00 0.00 81 1014.2
20260905140526 28 106 4.8 8.0 0.00 0.00 0.00 83 1014.1
20260905135520 28 107 4.8 8.0 0.00 0.00 0.00 84 1014.1
20260905134533 28 107 4.8 9.7 0.00 0.00 0.00 85 1014.2
20260905133526 28 110 4.8 8.0 0.00 0.00 0.00 85 1014.3
20260905132526 27 105 3.2 4.8 0.00 0.00 0.00 86 1014.4
20260905131528 27 116 3.2 4.8 0.00 0.00 0.00 88 1014.4
20260905130547 26 111 3.2 4.8 0.00 0.00 0.00 91 1014.5
20260905125618 26 105 4.8 6.4 0.00 0.00 0.00 92 1014.5
20260905124527 26 111 3.2 4.8 0.00 0.00 0.00 94 1014.5
20260905123527 25 116 4.8 8.0 0.00 0.00 0.00 95 1014.5
20260905122527 25 107 3.2 4.8 0.00 0.00 0.00 96 1014.5
20260905121527 25 108 4.8 8.0 0.00 0.00 0.00 97 1014.3
20260905120547 24 111 3.2 4.8 0.00 0.00 0.00 99 1014.3
20260905115605 23 114 3.2 6.4 0.00 0.00 0.00 100 1014.3
20260905114528 23 315 0.0 3.2 0.00 0.00 0.00 100 1014.3
20260905113541 23 167 0.0 1.6 0.00 0.00 0.00 100 1014.2
20260905112528 23 119 1.6 1.6 0.00 0.00 0.00 100 1014.1
20260905111528 23 113 1.6 1.6 0.00 0.00 0.00 100 1014.0
20260905110528 23 110 1.6 1.6 0.00 0.00 0.00 100 1013.9
20260905105530 23 125 1.6 1.6 0.00 0.00 0.00 100 1013.7
20260905104529 23 112 1.6 3.2 0.00 0.00 0.00 100 1013.6
20260905103529 23 131 0.0 1.6 0.00 0.00 0.00 100 1013.7
20260905102529 23 0.0 0.0 0.00 0.00 0.00 100 1013.6
20260905101529 23 0.0 0.0 0.00 0.00 0.00 100 1013.5
20260905100538 23 0.0 0.0 0.00 0.00 0.00 100 1013.4